This is the latest recevied weather packets stored in our database for station/object KG7FOQ-13. If no packets are shown the sender has not sent any weather packets the latest 10 day(s).
| Time | Temp. | Humidity | Pressure | Rain* | Wind** | Luminosity | Snow |
|---|---|---|---|---|---|---|---|
| 1777780520 | 17.22° C | 25% | 1014.1 hPa | 0 mm | - | - | - |
| 1777780220 | 13.89° C | 35% | 1014.1 hPa | 0 mm | - | - | - |
| 1777779919 | 13.89° C | 34% | 1014.1 hPa | 0 mm | - | - | - |
| 1777779619 | 13.89° C | 35% | 1014 hPa | 0 mm | - | - | - |
| 1777779318 | 13.33° C | 35% | 1014 hPa | 0 mm | - | - | - |
| 1777779018 | 13.89° C | 42% | 1013.7 hPa | 0 mm | - | - | - |
| 1777778717 | 15.56° C | 39% | 1013.6 hPa | 0 mm | - | - | - |
| 1777778417 | 16.11° C | 29% | 1013.6 hPa | 0 mm | - | - | - |
| 1777778116 | 15.56° C | 31% | 1013.5 hPa | 0 mm | - | - | - |
| 1777777816 | 16.67° C | 36% | 1013.5 hPa | 0 mm | - | - | - |
| 1777777515 | 18.33° C | 26% | 1013.5 hPa | 0 mm | - | - | - |
| 1777777251 | 18.33° C | 23% | 1013.4 hPa | 0 mm | - | - | - |
| 1777777215 | 18.33° C | 23% | 1013.4 hPa | 0 mm | - | - | - |
| 1777776914 | 18.33° C | 24% | 1013.4 hPa | 0 mm | - | - | - |
| 1777776613 | 18.33° C | 24% | 1013.3 hPa | 0 mm | - | - | - |
| 1777776312 | 18.89° C | 25% | 1013.4 hPa | 0 mm | - | - | - |
| 1777776011 | 19.44° C | 23% | 1013.2 hPa | 0 mm | - | - | - |
| 1777775711 | 18.89° C | 22% | 1013.2 hPa | 0 mm | - | - | - |
| 1777775410 | 18.33° C | 25% | 1013.2 hPa | 0 mm | - | - | - |
| 1777775109 | 18.33° C | 26% | 1013.2 hPa | 0 mm | - | - | - |
| 1777774808 | 18.33° C | 26% | 1013.2 hPa | 0 mm | - | - | - |
| 1777774508 | 18.33° C | 26% | 1013.2 hPa | 0 mm | - | - | - |
| 1777774207 | 20° C | 21% | 1012.9 hPa | 0 mm | - | - | - |
| 1777773907 | 20° C | 19% | 1012.8 hPa | 0 mm | - | - | - |
| 1777773306 | 20.56° C | 18% | 1012.8 hPa | 0 mm | - | - | - |
* Rain latest hour (hover to see other rain measurements)
** Current wind speed in m/s (hover to see current wind gust speed)